This demonstration page uses our WeatherBlox Daily Observations layout. Learn more.

Left ArrowRight Arrow

47.50024, -111.30081

Hourly Observations for January 25, 2022

Temp ( °F °C ) Dew Point ( °F °C ) Humidity (%) Winds ( mph kmh ) Pressure ( in mb ) Visibility ( mi km ) Precip ( " mm )
12:04 am 00:04 Cloudy 29 -1.7 27 -2.8 92 92 W 8 13 30.35 1028 10 16 0.00 0.00
12:49 am 00:49 Cloudy with Light Snow 30 -1 27 -3 86 86 WNW 10 17 30.35 1028 2 2 0.00 0.00
12:53 am 00:53 Cloudy with Light Snow 30 -1.1 27 -2.8 88 88 NW 12 19 30.35 1028 1 1 0.00 0.00
1:00 am 01:00 Cloudy with Light Snow 30 -1.1 27 -2.8 88 88 NW 12 19 30.35 1028 1 1 0.01 0.25
1:15 am 01:15 Cloudy with Light Snow 30 -1.1 28 -2.2 92 92 NW 9 15 30.35 1028 2 3 0.01 0.25
1:27 am 01:27 Cloudy with Light Snow 30 -1.1 28 -2.2 92 92 NW 9 15 30.36 1028 2 3 0.01 0.25
1:34 am 01:34 Cloudy with Light Snow 30 -1.1 28 -2.2 92 92 NW 9 15 30.35 1028 1 2 0.01 0.25
1:42 am 01:42 Cloudy with Light Snow 30 -1.1 28 -2.2 92 92 NW 12 19 30.36 1028 1 1 0.02 0.51
1:48 am 01:48 Cloudy with Light Snow 30 -1 28 -2 93 93 NW 10 17 30.36 1028 1 2 0.03 0.76
1:53 am 01:53 Cloudy with Light Snow 30 -1.1 28 -2.2 92 92 NW 8 13 30.36 1028 2 3 0.03 0.76
1:57 am 01:57 Cloudy with Light Snow 30 -1.1 28 -2.2 92 92 WNW 7 11 30.36 1028 3 5 0.00 0.00
2:09 am 02:09 Cloudy with Mist and Fog 30 -1.1 28 -2.2 92 92 NW 8 13 30.37 1028 6 10 0.00 0.00
2:51 am 02:51 Cloudy 28 -2 27 -3 93 93 NW 8 13 30.39 1029 10 16 0.00 0.00
2:53 am 02:53 Cloudy 29 -1.7 26 -3.3 89 89 NW 8 13 30.39 1029 10 16 0.00 0.00
3:14 am 03:14 Cloudy 29 -1.7 26 -3.3 89 89 NW 10 17 30.39 1029 10 16 0.00 0.00
3:53 am 03:53 Cloudy 28 -2.2 25 -3.9 88 88 NW 6 9 30.40 1029 10 16 0.00 0.00
4:53 am 04:53 Cloudy 28 -2.2 25 -3.9 88 88 WNW 5 7 30.40 1029 10 16 0.00 0.00
5:36 am 05:36 Cloudy with Light Snow 28 -2.2 25 -3.9 88 88 WSW 6 9 30.41 1030 5 8 0.00 0.00
5:46 am 05:46 Cloudy with Light Snow 28 -2.2 26 -3.3 92 92 SW 6 9 30.41 1030 1 1 0.00 0.00
5:53 am 05:53 Cloudy with Light Snow 28 -2.2 26 -3.3 92 92 SSW 7 11 30.40 1029 2 3 0.00 0.00
6:09 am 06:09 Cloudy with Light Snow 28 -2.2 26 -3.3 92 92 SSW 7 11 30.40 1029 7 11 0.00 0.00
6:53 am 06:53 Mostly Cloudy 26 -3.3 24 -4.4 92 92 SSW 9 15 30.39 1029 10 16 0.00 0.00
7:53 am 07:53 Clear 23 -5 21 -6.1 92 92 SSW 10 17 30.40 1029 10 16 0.00 0.00
8:53 am 08:53 Sunny 23 -5 21 -6.1 92 92 SSW 10 17 30.37 1029 10 16 0.00 0.00
9:53 am 09:53 Sunny 26 -3.3 23 -5 88 88 SSW 15 24 30.35 1028 10 16 0.00 0.00
10:53 am 10:53 Sunny 28 -2.2 23 -5 81 81 SSW 17 28 30.33 1027 10 16 0.00 0.00
11:53 am 11:53 Sunny 30 -1.1 24 -4.4 79 79 SW 15 24 30.28 1025 10 16 0.00 0.00
12:53 pm 12:53 Sunny 33 0.6 24 -4.4 70 70 SSW 15 24 30.22 1024 10 16 0.00 0.00
1:53 pm 13:53 Sunny 34 1.1 24 -4.4 67 67 SSW 22 35 30.18 1022 10 16 0.00 0.00
2:53 pm 14:53 Sunny 34 1.1 24 -4.4 67 67 SW 23 37 30.15 1021 10 16 0.00 0.00
3:53 pm 15:53 Sunny 34 1.1 23 -5 64 64 SW 23 37 30.14 1021 10 16 0.00 0.00
4:53 pm 16:53 Sunny 34 1.1 21 -6.1 59 59 SW 28 44 30.11 1020 10 16 0.00 0.00
5:53 pm 17:53 Clear 32 0 20 -6.7 61 61 SW 23 37 30.10 1019 10 16 0.00 0.00
6:53 pm 18:53 Mostly Clear 32 0 21 -6.1 64 64 SW 21 33 30.09 1019 10 16 0.00 0.00
7:53 pm 19:53 Clear 31 -0.6 20 -6.7 64 64 SW 20 31 30.08 1019 10 16 0.00 0.00
8:53 pm 20:53 Clear 32 0 19 -7.2 59 59 SW 22 35 30.06 1018 10 16 0.00 0.00
9:53 pm 21:53 Clear 32 0 20 -6.7 61 61 SW 21 33 30.04 1017 10 16 0.00 0.00
10:53 pm 22:53 Clear 30 -1.1 19 -7.2 64 64 SW 17 28 30.03 1017 10 16 0.00 0.00
11:53 pm 23:53 Clear 33 0.6 20 -6.7 58 58 SW 23 37 30.01 1016 10 16 0.00 0.00

Powered by AerisWeather